OISY

Yasuj Airport

Airport
ICAO code
OISY
IATA Code
YES
Summary
ICAO Region
MID
ICAO Territory
Location

Balahzar, Kohgiluyeh and Boyer-Ahmad Province

Serving
Yasuj
Elevation
5939 ft
Coordinates
30° 41' 59" N , 51° 33' 10" E
KCC
Metar
OISY 221800Z 00000KT CAVOK 06/M13 Q1023

Airport serving the city of Yasuj, Iran.

Climatology

Mediterranean climate (Köppen climate classification Csa). Hot summers and frequent rain in the winter months.

Runways

Designator Length Width Surface Rops
13/31 2598 45 ASP No/No

Airport map

Aerial View

SKYbrary Partners:

Safety knowledge contributed by: